Change the Weather History Date:

Saturday, February 1, 2014

  Actual Average Record
Temperature  
Mean Temperature 13 °F 22 °F  
Max Temperature 22 °F 34 °F 62 °F (1934)
Min Temperature 4 °F 11 °F -25 °F (1951)
Degree Days  
Heating Degree Days 52 43  
Month to date heating degree days 52 43  
Since 1 July heating degree days 4568 4633  
Cooling Degree Days 0 0  
Month to date cooling degree days 0 0  
Year to date cooling degree days 0 0  
Moisture  
Dew Point 8 °F    
Average Humidity 72    
Maximum Humidity 92    
Minimum Humidity 52    
Precipitation  
Precipitation 0.01 in 0.02 in 0.38 in (1989)
Month to date precipitation 0.01 0.02  
Year to date precipitation 0.62 0.43  
Snow  
Snow 0.50 in 0.30 in - ()
Month to date snowfall 0.5 0.3  
Since 1 July snowfall 52.0 43.6  
Snow Depth T in    
Sea Level Pressure  
Sea Level Pressure 29.99 in    
Wind  
Wind Speed 4 mph (East)    
Max Wind Speed 15 mph    
Max Gust Speed 19 mph    
Visibility 6 miles    
Events Fog , Snow    
T = Trace of Precipitation, MM = Missing Value Source: NWS Daily Summary

Daily Weather History Graph

Daily Weather History Graph

Search for Another Location

Airport or City:

Trip Planner

Search our weather history database for the weather conditions in past years. The results will help you decide how hot, cold, wet, or windy it might be!

Date:

Astronomy

Feb. 01, 2014 Rise Set
Actual Time 7:29 AM MST 5:28 PM MST
Civil Twilight 6:59 AM MST 5:58 PM MST
Nautical Twilight 6:25 AM MST 6:32 PM MST
Astronomical Twilight 5:52 AM MST 7:05 PM MST
Moon 8:16 AM MST (2/1) 8:12 PM MST (2/1)
Length of Visible Light 10h 58m
Length of Day
9h 58m
Waxing Crescent, 5% of the Moon is Illuminated
Feb 1
Waxing Crescent
Feb 6
First Quarter
Feb 14
Full
Feb 22
Last Quarter
Mar 1
New

Hourly Weather History & Observations

Time (MST) Temp. Windchill Dew Point Humidity Pressure Visibility Wind Dir Wind Speed Gust Speed Precip Events Conditions
12:53 AM 21.0 °F - 6.1 °F 53% 29.82 in 10.0 mi Calm Calm - N/A   Clear
1:53 AM 17.1 °F - 9.0 °F 71% 29.84 in 10.0 mi Calm Calm - N/A   Clear
2:53 AM 16.0 °F 5.3 °F 7.0 °F 68% 29.86 in 10.0 mi NW 8.1 mph - N/A   Clear
3:53 AM 17.1 °F 6.6 °F 8.1 °F 68% 29.88 in 10.0 mi North 8.1 mph - N/A   Mostly Cloudy
4:53 AM 15.1 °F - 10.9 °F 84% 29.92 in 10.0 mi Calm Calm - N/A   Scattered Clouds
5:25 AM 15.1 °F - 12.0 °F 88% 29.81 in 10.0 mi Calm Calm - N/A   Mostly Cloudy
5:53 AM 16.0 °F 8.8 °F 12.0 °F 84% 29.96 in 10.0 mi ESE 4.6 mph - N/A   Overcast
6:53 AM 15.1 °F 6.4 °F 12.0 °F 88% 30.00 in 5.0 mi ESE 5.8 mph - 0.00 in Snow Light Snow
7:30 AM 14.0 °F 3.9 °F 10.9 °F 88% 29.86 in 5.0 mi East 6.9 mph - 0.00 in Snow Light Snow
7:53 AM 14.0 °F 2.9 °F 10.9 °F 88% 30.02 in 5.0 mi ESE 8.1 mph - 0.00 in Snow Light Snow
8:53 AM 14.0 °F 3.9 °F 10.0 °F 84% 30.06 in 5.0 mi ESE 6.9 mph - 0.00 in Snow Light Snow
9:06 AM 14.0 °F 5.1 °F 10.0 °F 84% 29.90 in 2.0 mi East 5.8 mph - 0.00 in Snow Light Snow
9:16 AM 14.0 °F 5.1 °F 10.0 °F 84% 29.91 in 1.2 mi East 5.8 mph - 0.00 in Snow Light Snow
9:53 AM 14.0 °F 5.1 °F 10.0 °F 84% 30.09 in 1.2 mi East 5.8 mph - 0.00 in Snow Light Snow
10:16 AM 12.9 °F 2.6 °F 10.0 °F 88% 29.93 in 0.5 mi East 6.9 mph - 0.00 in Fog , Snow Snow
10:27 AM 12.9 °F 2.6 °F 10.0 °F 88% 29.93 in 1.0 mi NNE 6.9 mph - 0.01 in Snow Light Snow
10:53 AM 12.9 °F 6.9 °F 10.0 °F 88% 30.10 in 1.0 mi ENE 3.5 mph - 0.01 in Snow Light Snow
11:11 AM 14.0 °F 5.1 °F 10.0 °F 84% 29.93 in 1.8 mi East 5.8 mph - 0.00 in Snow Light Snow
11:13 AM 14.0 °F 5.1 °F 10.9 °F 88% 29.93 in 2.0 mi East 5.8 mph - 0.00 in Snow Light Snow
11:23 AM 14.0 °F 2.9 °F 10.0 °F 84% 29.93 in 3.0 mi East 8.1 mph - 0.00 in Snow Light Snow
11:37 AM 14.0 °F 2.0 °F 9.0 °F 80% 29.93 in 5.0 mi East 9.2 mph - 0.00 in   Haze
11:53 AM 14.0 °F 0.5 °F 9.0 °F 80% 30.11 in 7.0 mi ENE 11.5 mph - 0.00 in   Overcast
12:38 PM 14.0 °F 3.9 °F 9.0 °F 80% 29.92 in 2.0 mi ENE 6.9 mph - 0.00 in Snow Light Snow
12:53 PM 14.0 °F 6.5 °F 10.0 °F 84% 30.09 in 2.5 mi East 4.6 mph - 0.00 in Snow Light Snow
1:35 PM 15.1 °F 6.4 °F 9.0 °F 77% 29.91 in 4.0 mi East 5.8 mph - 0.00 in   Haze
1:51 PM 15.8 °F 10.2 °F 8.6 °F 73% 29.91 in 2.0 mi ENE 3.5 mph - 0.00 in Snow Light Snow
1:53 PM 16.0 °F 8.8 °F 8.1 °F 71% 30.09 in 2.0 mi East 4.6 mph - 0.00 in Snow Light Snow
2:15 PM 16.0 °F 8.8 °F 9.0 °F 74% 29.91 in 4.0 mi East 4.6 mph - 0.00 in   Haze
2:23 PM 15.1 °F - 8.1 °F 74% 29.91 in 7.0 mi Calm Calm - 0.00 in   Overcast
2:51 PM 15.8 °F 6.1 °F 10.4 °F 79% 29.92 in 2.5 mi ENE 6.9 mph - 0.00 in Snow Light Snow
2:53 PM 16.0 °F 6.3 °F 10.0 °F 77% 30.10 in 2.0 mi East 6.9 mph - 0.00 in Snow Light Snow
3:03 PM 15.1 °F 6.4 °F 9.0 °F 77% 29.92 in 1.8 mi ENE 5.8 mph - 0.00 in Snow Light Snow
3:10 PM 16.0 °F 7.4 °F 9.0 °F 74% 29.92 in 3.0 mi East 5.8 mph - 0.00 in Snow Light Snow
3:53 PM 17.1 °F 10.0 °F 7.0 °F 65% 30.11 in 10.0 mi ESE 4.6 mph - 0.00 in   Overcast
4:22 PM 14.0 °F 6.5 °F 7.0 °F 74% 29.93 in 10.0 mi NE 4.6 mph - N/A   Scattered Clouds
4:53 PM 15.1 °F - 7.0 °F 70% 30.13 in 10.0 mi Calm Calm - N/A   Clear
5:53 PM 10.9 °F - 6.1 °F 81% 30.15 in 10.0 mi Calm Calm - N/A   Clear
6:53 PM 9.0 °F -2.2 °F 3.9 °F 80% 30.18 in 10.0 mi WSW 6.9 mph - N/A   Clear
7:53 PM 9.0 °F 2.4 °F 3.0 °F 77% 30.19 in 10.0 mi SW 3.5 mph - N/A   Clear
8:53 PM 8.1 °F -0.5 °F 1.9 °F 76% 30.19 in 10.0 mi SW 4.6 mph - N/A   Clear
9:53 PM 7.0 °F - 3.0 °F 84% 30.19 in 10.0 mi Calm Calm - N/A   Clear
10:53 PM 6.1 °F - 3.0 °F 87% 30.18 in 10.0 mi Calm Calm - N/A   Clear
11:53 PM 5.0 °F - 1.0 °F 84% 30.17 in 10.0 mi Calm Calm - N/A   Clear